Location: Eastlake (historical)
(39.0077°N, 122.6678°W)
Time: 10:45:30
(UTC+00:00)

ALOS - Pass Details

Date: 19 April 2021
Orbit: 682 x 685 km, 97.9° (Epoch: 08 May)

Event Time Altitude Azimuth Distance (km) Brightness Sun altitude
Rises 11:32:49 0° 26° (NNE) 3,053 6.7 -21.0°
Reaches altitude 10° 11:35:26 10° 40° (NE) 2,132 5.9 -20.6°
Maximum altitude 11:39:14 24° 95° (E) 1,387 4.4 -20.0°
Drops below altitude 10° 11:43:01 10° 149° (SSE) 2,119 4.8 -19.4°
Sets 11:45:36 0° 163° (SSE) 3,029 5.4 -18.9°
